Regional Weather Roundup
Issued by NWS

Home | Current Version | Previous Version | Graphics & Text | Print | Product List | Glossary On
Versions: 1 2 3 4 5 6 7 8 9 10 11 12 13 14 15 16 17 18 19 20 21 22 23 24 25 26 27 28 29 30 31 32 33 34 35 36 37 38 39 40 41 42 43 44 45 46 47 48 49 50
000
ASUS43 KTOP 261408
RWRKS

WEATHER ROUNDUP FOR KANSAS
NATIONAL WEATHER SERVICE GOODLAND KS
900 AM CDT THU MAR 26 2015

NOTE:  "FAIR" INDICATES FEW OR NO CLOUDS BELOW 12,000 FEET WITH NO
SIGNIFICANT WEATHER AND/OR OBSTRUCTIONS TO VISIBILITY.

KSZ001>006-013>018-027>032-041>047-261500-
NORTHWEST KANSAS

CITY           SKY/WX    TMP DP  RH WIND       PRES   REMARKS
GOODLAND       SUNNY     34  30  85 W8        30.20F
HAYS           SUNNY     30  19  64 NW5       30.27S
HILL CITY      SUNNY     28  23  81 W3        30.26S
RUSSELL        SUNNY     32  27  81 NW6       30.26S
$$

KSZ061>065-074>080-084>089-261500-
SOUTHWEST KANSAS

CITY           SKY/WX    TMP DP  RH WIND       PRES   REMARKS
DODGE CITY     SUNNY     34  28  79 NW5       30.27R
ELKHART          N/A     34  29  82 W6          N/A
GARDEN CITY    MOSUNNY   29  27  92 W3        30.26S
GREAT BEND     SUNNY     30  25  80 NW8       30.28S
LIBERAL        MOSUNNY   34  28  80 NW5       30.29R
PRATT          SUNNY     34  30  86 N9        30.27F
$$

KSZ066>073-081>083-090>101-261500-
SOUTHEAST KANSAS

CITY           SKY/WX    TMP DP  RH WIND       PRES   REMARKS
CHANUTE        PTSUNNY   39  33  79 N14       30.21S WCI  31
COFFEYVILLE    MOSUNNY   41  34  76 N16       30.20R
HUTCHINSON     SUNNY     38  27  64 N12       30.26S WCI  30
MEDICINE LODGE   N/A     37  31  78 N7        30.27S
NEWTON         SUNNY     34  25  69 N10       30.26R WCI  26
PARSONS        MOSUNNY   41  34  76 N12       30.21S
WICHITA INTL   MOSUNNY   38  29  70 N10       30.26R WCI  31
WICHITA JABRA  SUNNY     37  30  75 N13       30.24R WCI  29
WICHITA MCCONL SUNNY     38  29  71 N14       30.24R WCI  30
WINFIELD       SUNNY     40  33  76 N13       30.24S WCI  32
$$

KSZ007>012-019>026-033>040-048>060-102>105-261500-
NORTHEAST KANSAS

CITY           SKY/WX    TMP DP  RH WIND       PRES   REMARKS
CONCORDIA      SUNNY     31  25  78 NW8       30.27R
EMPORIA        SUNNY     36  29  75 N9        30.23S
LAWRENCE       SUNNY     35  30  82 NW9       30.24S
MANHATTAN      SUNNY     34  29  82 NE7       30.26S
MARYSVILLE     SUNNY     32  28  86 NW5       30.25S
OLATHE IND     MOSUNNY   36  31  82 N9        30.23R
OLATHE EXE     MOSUNNY   37  29  72 N9        30.21R
SALINA         SUNNY     33  27  78 NW6       30.28R
TOPEKA BILLARD SUNNY     36  30  79 NW6       30.26R
TOPEKA FORBES  SUNNY     37  30  75 MISG      30.24R
$$



USA.gov is the U.S. government's official web portal to all federal, state and local government web resources and services.